TimeGMT,TemperatureF,Dew PointF,Humidity,Sea Level PressureIn,VisibilityMPH,Wind Direction,Wind SpeedMPH,Gust SpeedMPH,PrecipitationIn,Events,Conditions,WindDirDegrees,DateUTC
5:50 AM,37.4,33.8,87,30.21,6.2,West,8.1,-,N/A,,Partly Cloudy,260,2012-12-08 05:50:00
6:20 AM,39.2,35.6,87,30.21,6.2,West,9.2,-,N/A,,Partly Cloudy,260,2012-12-08 06:20:00
6:50 AM,39.2,35.6,87,30.21,6.2,West,6.9,-,N/A,Rain,Light Rain Showers,270,2012-12-08 06:50:00
7:20 AM,42.8,39.2,87,30.21,6.2,SW,11.5,-,N/A,,Mostly Cloudy,220,2012-12-08 07:20:00
7:50 AM,42.8,39.2,87,30.21,6.2,SW,12.7,-,N/A,Rain,Light Rain,220,2012-12-08 07:50:00
8:20 AM,44.6,41.0,87,30.21,6.2,SW,11.5,-,N/A,Rain,Light Rain,230,2012-12-08 08:20:00
8:50 AM,44.6,42.8,93,30.21,3.1,SW,13.8,-,N/A,Rain,Light Rain,230,2012-12-08 08:50:00
9:20 AM,46.4,42.8,87,30.21,3.7,SW,15.0,-,N/A,Rain,Light Rain,230,2012-12-08 09:20:00
9:50 AM,44.6,42.8,93,30.21,5.0,SW,15.0,-,N/A,Rain,Light Rain,230,2012-12-08 09:50:00
10:20 AM,46.4,44.6,93,30.21,6.2,SW,15.0,-,N/A,Rain,Light Rain,230,2012-12-08 10:20:00
10:50 AM,46.4,44.6,93,30.21,6.2,SW,15.0,-,N/A,Rain,Light Rain,220,2012-12-08 10:50:00
11:20 AM,46.4,44.6,93,30.21,6.2,SW,10.4,-,N/A,Rain,Light Rain,220,2012-12-08 11:20:00
11:50 AM,48.2,46.4,93,30.21,6.2,SW,13.8,-,N/A,Rain,Light Rain,230,2012-12-08 11:50:00
12:20 PM,50.0,46.4,87,30.21,6.2,SW,13.8,-,N/A,Rain,Light Rain,230,2012-12-08 12:20:00
12:50 PM,50.0,48.2,94,30.21,6.2,SW,13.8,-,N/A,,Overcast,230,2012-12-08 12:50:00
1:20 PM,50.0,48.2,94,30.21,6.2,WSW,12.7,-,N/A,,Overcast,250,2012-12-08 13:20:00
1:50 PM,50.0,48.2,94,30.21,6.2,West,18.4,-,N/A,,Overcast,260,2012-12-08 13:50:00
2:20 PM,50.0,46.4,87,30.21,6.2,West,17.3,-,N/A,,Mostly Cloudy,260,2012-12-08 14:20:00
2:50 PM,50.0,46.4,87,30.21,6.2,WSW,18.4,-,N/A,,Mostly Cloudy,250,2012-12-08 14:50:00
3:20 PM,50.0,46.4,87,30.18,6.2,WSW,20.7,-,N/A,,Mostly Cloudy,250,2012-12-08 15:20:00
3:50 PM,50.0,46.4,87,30.21,6.2,West,18.4,-,N/A,,Mostly Cloudy,260,2012-12-08 15:50:00
4:20 PM,48.2,44.6,87,30.21,6.2,WSW,15.0,-,N/A,,Mostly Cloudy,250,2012-12-08 16:20:00